(285547) = 2000 HL32 = 2007 JZ34

Discovered at Socorro on 2000-04-29 by LINEAR.

Orbit

Orbit type: Main Belt

Note: WebGL enabled browser required.

epoch2024-03-31.0
epoch JD2460400.5
perihelion date2021-06-29.52140
perihelion JD2459395.02140
argument of perihelion (°)237.41173
ascending node (°)28.11562
inclination (°)2.65376
eccentricity0.2207172
perihelion distance (AU)1.7894427
Tisserand w.r.t. Jupiter3.6
ΔV w.r.t. Earth (km/sec)8.3
semimajor axis (AU)2.2962687
mean anomaly (°)284.80174
mean daily motion (°/day)0.28324990
aphelion distance (AU)2.803
period (years)3.48
P-vector [x]-0.07840906
P-vector [y]-0.89843916
P-vector [z]-0.43204061
Q-vector [x]0.99668247
Q-vector [y]-0.06116133
Q-vector [z]-0.05369681
absolute magnitude17.72
phase slope0.15
uncertainty0
referenceMPEC 2024-E109
observations used134
oppositions14
arc length (days)8717
first opposition used2000
last opposition used2024
residual rms (arc-secs)0.80
perturbers coarse indicatorM-v
perturbers precise indicator003Ek
first observation date used2000-04-24.0
last observation date used2024-03-06.0
computer nameMPCLINUX
JD of orbit computation2456819.473190
perihelion JD uncertainty (days)5.7634E-05
argument of perihelion uncertainty (°)1.1481E-04
ascending node uncertainty (°)1.1287E-04
inclination uncertainty (°)8.4736E-06
eccentricity uncertainty 7.1680E-08
perihelion distance uncertainty (AU)1.6435E-07
Minimum Orbit Intersection Distances (in AU)
for orbit epoch: 2460400.5, reference: E2024-EA9
Mercury1.32383
Venus1.06326
Earth0.77526
Mars0.29652
Jupiter2.28171
Saturn6.24694
Uranus15.9565
Neptune27.126

Observations

143 total observations over interval: 2000 04 24.37490 – 2024 03 06.370770
These data are available for download (format description).

